Showing default

HORIZONS 1 (GALAXY 13), 27954

Orbit data source: Space-Track

HORIZONS 1 (GALAXY 13), 27954 is a payload satellite owned by Panamsat (US) in GEO that was launched on Wed, 01 Oct 2003 UTC via a ZENIT-3SL launch vehicle from the Sea Launch (SEAL). Payload-class satellites include a variety of spacecraft equipped with specific instruments for various scientific and technological missions. These include communications satellites like Starlink; space stations such as the ISS; scientific satellites like the Hubble; Earth observation satellites from companies like Planet Labs, Umbra, and HawkEye 360; GPS; miniature CubeSats for education and research; and military/defense satellites.

Loading next visibility...
Identifier
27954, 2003-044A
Orbit
GEO
Country
Flag of USUS
Related business
Manufacturer
Boeing/ES
Mission
Operational Commercial Communications
Bus & Motor
HS-601HP, R-4D-11-300
Mass
4,090 kg wet, ~2,000 kg dry
Launch date (UTC)
2003-10-01 (22 years ago)
Launch vehicle
ZENIT-3SL
Launch site
Sea Launch (SEAL)
Object type
Payload
Rocket body
Debris
Shape & HBR
Box + 2 Pan, 13.1 m
Radar Cross Section
46.266 m², Large (>1 m²)

Expand to show TLE details & history
Last TLE update: 15 hours ago

TLE from 15 hours ago
0 HORIZONS 1 (GALAXY 13)
1 27954U 03044A   26071.75601043  .00000133  00000-0  00000-0 0  9997
2 27954   1.1691  85.1512 0002219 263.5110 303.8686  1.00270817 45606
Epoch: 2026-03-12T18:08Z
TLE epoch observation values (Epoch: 2026-03-12T18:08:39.301Z)
Latitude
-0.52423°
Longitude
-150.04275°
Altitude
35,781.188 km
Speed
3.075 km/s
True Right ascension
19h 30m 05s
True Declination
0° 31' 25"
Sunlit
Object was in daylight at epoch
Visualization orbit readout
Latitude
Unknown
Longitude
Unknown
Altitude
Unknown
Speed
Unknown
Apparent Right ascension
Unknown
Apparent Declination
Unknown
Sunlit
N/A
Visualization observer readout
Local Sidereal Time
13:07:10
Azimuth
Unknown
Elevation
Unknown
Doppler factor
Unknown
Orbital elements
Apogee altitude
35,797.293 km
Perigee altitude
35,778.579 km
Semi-major axis
42,166.073 km
Eccentricity
0.00022
Inclination
1.1691°
RAAN
85.1512°
Arg. of periapsis
263.511°
True anomaly
303.84748°
Mean anomaly
303.8686°
Eccentric anomaly
303.85804°
Mean motion
0.25067 °/min
Orbital period
1,436.16 mins
BSTAR
0
Loading maneuver chart data...
Computing Atmospheric mass density...
Loading historical data...
Loading historical data...
Loading historical data...
Loading historical data...
Loading historical data...
Loading historical data...
Loading historical data...
Other satellites on launch #44 in the year 2003 (2003-10-01 UTC)

Documentation

Showing up to 5 results
|